Miscellaneous Local Product
Issued by NWS Hastings, NE

Home | Current Version | Previous Version | Text Only | Print | Product List | Glossary On
Versions: 1 2 3 4 5 6 7 8 9 10 11 12 13 14 15 16 17 18 19 20 21 22 23 24 25 26 27 28 29 30 31 32 33 34 35 36 37 38 39 40 41 42 43 44 45 46 47 48 49 50
000
AXUS43 KGID 041302
MISGRI

GID CWA HOURLY WEATHER ROUNDUP
NATIONAL WEATHER SERVICE HASTINGS NE
800 AM CDT MON MAY 04 2015

NOTE: "FAIR" INDICATES FEW OR NO CLOUDS BELOW 12,000 FEET WITH NO
SIGNIFICANT WEATHER AND/OR OBSTRUCTIONS TO VISIBILITY.

...SOUTH CENTRAL NEBRASKA...

CITY           SKY/WX    TMP DP  RH WIND       PRES   REMARKS
GRAND ISLAND   CLOUDY    57  36  45 NE12      30.07R
HASTINGS       CLOUDY    56  43  61 NE22G29   30.02S
KEARNEY        PTSUNNY   57  36  44 NE20G25   30.04R
ORD            CLOUDY    55  30  38 NE10      30.08R
YORK           CLOUDY    55  46  71 NE12      30.05R
AURORA         CLOUDY    55  44  67 NE12      30.07R
LEXINGTON      CLOUDY    56  36  48 E10       30.07R
HOLDREGE       CLOUDY    54  44  67 NE14      30.02R
HEBRON         CLOUDY    58  52  79 NE16      29.98R

...NEBRASKA PANHANDLE...

CITY           SKY/WX    TMP DP  RH WIND       PRES   REMARKS
CHADRON        LGT RAIN  46  43  89 N5        30.17R
ALLIANCE       CLOUDY    47  40  76 E7        30.14R
SCOTTSBLUFF    CLOUDY    51  38  60 E8        30.13R
SIDNEY         CLOUDY    49  37  63 E9        30.12R

...WESTERN AND NORTH CENTRAL NEBRASKA...

CITY           SKY/WX    TMP DP  RH WIND       PRES   REMARKS
VALENTINE      PTSUNNY   50  32  50 E5        30.16R
AINSWORTH      CLOUDY    51  33  50 NE8       30.15S
ONEILL         CLOUDY    50  33  53 N10       30.12S
BROKEN BOW     CLOUDY    55  30  38 NE17      30.07R
IMPERIAL       CLOUDY    52  38  58 NE5       30.10R
NORTH PLATTE   CLOUDY    52  33  48 NE10      30.08R
MCCOOK         CLOUDY    58  41  53 NE8       30.06R

...EASTERN NEBRASKA...

CITY           SKY/WX    TMP DP  RH WIND       PRES   REMARKS
NORFOLK        CLOUDY    56  31  38 NE13      30.09R
SO SIOUX CITY  PTSUNNY   57  34  41 N7        30.10R
TEKAMAH        CLOUDY    58  42  55 N8        30.08R
COLUMBUS       CLOUDY    55  36  47 NE17      30.06F
ALBION         CLOUDY    56  29  34 NE12G17   30.08R
OMAHA EPPLEY   CLOUDY    59  49  69 N14       30.04F
OFFUTT AFB     LGT RAIN  57  51  79 N13G20    30.00F
MILLARD        LGT RAIN  59  49  69 CALM      30.05R
LINCOLN        CLOUDY    59  50  72 NE12      30.04R
NEBRASKA CITY  CLOUDY    57  56  95 NE9       30.02S
BEATRICE       PTSUNNY   58  55  89 NE10G16   30.02R
FALLS CITY     PTSUNNY   62  56  80 N7        30.01R

...NORTHERN KANSAS...

CITY           SKY/WX    TMP DP  RH WIND       PRES   REMARKS
GOODLAND       CLOUDY    51  45  79 N7        30.08R
HILL CITY      CLOUDY    57  50  77 N7        30.02S
NORTON         CLOUDY    55  39  54 N9        30.03S
PHILLIPSBURG   DRIZZLE   63  50  63 N9        30.02R
SMITH CENTER   PTSUNNY   59  48  67 NE15G21   29.99S
HAYS           CLOUDY    57  45  62 N13       29.96F
RUSSELL        CLOUDY    60  49  66 NE14      29.95R
CONCORDIA      PTSUNNY   63  56  78 N13       29.93S
SALINA         CLOUDY    64  56  75 S8        29.97R
TOPEKA         LGT RAIN  63  58  83 SE3       30.00R



USA.gov is the U.S. government's official web portal to all federal, state and local government web resources and services.